Lafayette, CO

4:14 AM MST on February 21, 2017 (GMT -0700)
Erie Municipal Airport

Weather History for KEIK - February, 2012

Change the Weather History Date:

Sunday, February 5, 2012

  Actual Average (KBJC) Record (KBJC)
Temperature  
Mean Temperature 16 °F -  
Max Temperature 30 °F 42 °F 68 °F (2009)
Min Temperature 1 °F 23 °F -13 °F (1985)
Degree Days  
Heating Degree Days 50    
Moisture  
Dew Point 12 °F    
Average Humidity 82    
Maximum Humidity 100    
Minimum Humidity 60    
Precipitation  
Precipitation 0.00 in - - ()
Sea Level Pressure  
Sea Level Pressure 30.30 in    
Wind  
Wind Speed 2 mph (SSE)    
Max Wind Speed 7 mph    
Max Gust Speed -    
Visibility 10 miles    
Events      
Averages and records for this station are not official NWS values.
T = Trace of Precipitation, MM = Missing Value Source: NWS Daily Summary

Daily Weather History Graph

Daily Weather History Graph

Search for Another Location

Airport or City:

Trip Planner

Search our weather history database for the weather conditions in past years. The results will help you decide how hot, cold, wet, or windy it might be!

Date:

Astronomy

Feb. 05, 2012 Rise Set
Actual Time 7:05 AM MST 5:23 PM MST
Civil Twilight 6:36 AM MST 5:52 PM MST
Nautical Twilight 6:04 AM MST 6:24 PM MST
Astronomical Twilight 5:32 AM MST 6:55 PM MST
Moon 3:25 PM MST (2/5) 5:17 AM MST (2/5)
Length of Visible Light 11h 15m
Length of Day
10h 18m
Waxing Gibbous, 95% of the Moon is Illuminated
Feb 5
Waxing Gibbous
Feb 7
Full
Feb 14
Last Quarter
Feb 21
New
Feb 29
First Quarter

Hourly Weather History & Observations

Time (MST) Temp. Windchill Dew Point Humidity Pressure Visibility Wind Dir Wind Speed Gust Speed Precip Events Conditions
12:18 AM 17.6 °F - 15.8 °F 93% 30.39 in 7.0 mi Calm Calm - N/A   Unknown
12:38 AM 15.8 °F - 14.0 °F 93% 30.39 in 7.0 mi Calm Calm - N/A   Unknown
12:58 AM 14.0 °F 6.5 °F 12.2 °F 93% 30.39 in 7.0 mi SSW 4.6 mph - N/A   Unknown
1:18 AM 12.2 °F 6.1 °F 10.4 °F 92% 30.38 in 7.0 mi SW 3.5 mph - N/A   Unknown
1:38 AM 12.2 °F 4.3 °F 10.4 °F 92% 30.38 in 10.0 mi SSW 4.6 mph - N/A   Unknown
1:58 AM 10.4 °F 0.8 °F 10.4 °F 100% 30.37 in 10.0 mi SSW 5.8 mph - N/A   Unknown
2:18 AM 12.2 °F 2.9 °F 12.2 °F 100% 30.37 in 10.0 mi South 5.8 mph - N/A   Unknown
2:58 AM 10.4 °F 0.8 °F 8.6 °F 92% 30.35 in 10.0 mi SSW 5.8 mph - N/A   Unknown
3:38 AM 12.2 °F 6.1 °F 10.4 °F 92% 30.34 in 10.0 mi SSW 3.5 mph - N/A   Unknown
3:58 AM 10.4 °F - 8.6 °F 92% 30.33 in 10.0 mi Calm Calm - N/A   Unknown
4:18 AM 8.6 °F 2.0 °F 5.0 °F 85% 30.33 in 10.0 mi SSW 3.5 mph - N/A   Unknown
4:58 AM 6.8 °F - 5.0 °F 92% 30.32 in 10.0 mi Calm Calm - N/A   Unknown
5:18 AM 6.8 °F -0.1 °F 5.0 °F 92% 30.32 in 10.0 mi South 3.5 mph - N/A   Unknown
5:38 AM 3.2 °F - 1.4 °F 92% 30.32 in 10.0 mi Calm Calm - N/A   Unknown
5:58 AM 5.0 °F - 1.4 °F 85% 30.32 in 10.0 mi Calm Calm - N/A   Unknown
6:18 AM 1.4 °F -6.2 °F -0.4 °F 92% 30.32 in 10.0 mi SW 3.5 mph - N/A   Unknown
6:58 AM 3.2 °F - 1.4 °F 92% 30.33 in 7.0 mi Calm Calm - N/A   Unknown
7:18 AM 3.2 °F -4.2 °F 1.4 °F 92% 30.33 in 7.0 mi SSW 3.5 mph - N/A   Unknown
7:38 AM 1.4 °F - -2.2 °F 85% 30.33 in 7.0 mi Calm Calm - N/A   Unknown
7:58 AM 3.2 °F - 1.4 °F 92% 30.33 in 7.0 mi Calm Calm - N/A   Unknown
8:18 AM 5.0 °F - 3.2 °F 92% 30.33 in 10.0 mi Calm Calm - N/A   Unknown
8:38 AM 8.6 °F - 5.0 °F 85% 30.34 in 10.0 mi Calm Calm - N/A   Unknown
8:58 AM 10.4 °F - 10.4 °F 100% 30.33 in 10.0 mi Calm Calm - N/A   Unknown
9:18 AM 14.0 °F - 12.2 °F 93% 30.33 in 10.0 mi Calm Calm - N/A   Unknown
9:58 AM 21.2 °F - 14.0 °F 74% 30.33 in 10.0 mi Calm Calm - N/A   Unknown
10:18 AM 19.4 °F - 14.0 °F 80% 30.33 in 10.0 mi Calm Calm - N/A   Unknown
10:58 AM 26.6 °F - 17.6 °F 69% 30.32 in 10.0 mi Calm Calm - N/A   Unknown
11:18 AM 28.4 °F - 19.4 °F 69% 30.31 in 10.0 mi Calm Calm - N/A   Unknown
11:38 AM 28.4 °F - 19.4 °F 69% 30.30 in 10.0 mi Calm Calm - N/A   Unknown
11:58 AM 30.2 °F - 19.4 °F 64% 30.29 in 10.0 mi Calm Calm - N/A   Unknown
12:18 PM 30.2 °F - 19.4 °F 64% 30.27 in 10.0 mi Calm Calm - N/A   Unknown
12:38 PM 30.2 °F - 19.4 °F 64% 30.26 in 10.0 mi Calm Calm - N/A   Unknown
12:58 PM 30.2 °F 26.7 °F 19.4 °F 64% 30.26 in 10.0 mi ENE 3.5 mph - N/A   Unknown
1:18 PM 30.2 °F 24.3 °F 19.4 °F 64% 30.25 in 10.0 mi NNE 5.8 mph - N/A   Unknown
1:38 PM 30.2 °F 25.4 °F 21.2 °F 69% 30.24 in 10.0 mi NE 4.6 mph - N/A   Unknown
1:58 PM 30.2 °F 24.3 °F 19.4 °F 64% 30.24 in 10.0 mi NE 5.8 mph - N/A   Unknown
2:18 PM 30.2 °F 26.7 °F 19.4 °F 64% 30.23 in 10.0 mi ENE 3.5 mph - N/A   Unknown
2:38 PM 30.2 °F 25.4 °F 19.4 °F 64% 30.23 in 10.0 mi NNE 4.6 mph - N/A   Unknown
2:58 PM 30.2 °F 25.4 °F 17.6 °F 60% 30.23 in 10.0 mi NE 4.6 mph - N/A   Unknown
3:18 PM 28.4 °F 24.6 °F 19.4 °F 69% 30.23 in 10.0 mi NNE 3.5 mph - N/A   Unknown
3:38 PM 28.4 °F - 19.4 °F 69% 30.22 in 10.0 mi Calm Calm - N/A   Unknown
3:58 PM 28.4 °F 24.6 °F 19.4 °F 69% 30.22 in 10.0 mi North 3.5 mph - N/A   Unknown
4:18 PM 28.4 °F 24.6 °F 19.4 °F 69% 30.22 in 10.0 mi North 3.5 mph - N/A   Unknown
4:38 PM 26.6 °F - 19.4 °F 74% 30.21 in 10.0 mi Calm Calm - N/A   Unknown
4:58 PM 24.8 °F - 19.4 °F 80% 30.21 in 10.0 mi Calm Calm - N/A   Unknown
5:18 PM 21.2 °F - 17.6 °F 86% 30.21 in 10.0 mi Calm Calm - N/A   Unknown
5:38 PM 19.4 °F - 17.6 °F 93% 30.21 in 10.0 mi Calm Calm - N/A   Unknown
5:58 PM 14.0 °F 8.2 °F 12.2 °F 93% 30.22 in 7.0 mi SW 3.5 mph - N/A   Unknown
6:18 PM 14.0 °F - 12.2 °F 93% 30.22 in 7.0 mi Calm Calm - N/A   Unknown
6:38 PM 12.2 °F - 10.4 °F 92% 30.21 in 7.0 mi Calm Calm - N/A   Unknown
6:58 PM 12.2 °F - 10.4 °F 92% 30.22 in 7.0 mi Calm Calm - N/A   Unknown
7:18 PM 10.4 °F - 10.4 °F 100% 30.21 in 5.0 mi Calm Calm - N/A   Mist
7:38 PM 10.4 °F - 8.6 °F 92% 30.21 in 7.0 mi Calm Calm - N/A   Unknown
7:58 PM 10.4 °F - 8.6 °F 92% 30.21 in 5.0 mi Calm Calm - N/A   Mist
8:18 PM 10.4 °F 4.0 °F 10.4 °F 100% 30.21 in 7.0 mi South 3.5 mph - N/A   Unknown
8:38 PM 12.2 °F - 10.4 °F 92% 30.20 in 7.0 mi Calm Calm - N/A   Unknown
8:58 PM 10.4 °F 4.0 °F 10.4 °F 100% 30.20 in 7.0 mi SSW 3.5 mph - N/A   Unknown
9:18 PM 10.4 °F - 8.6 °F 92% 30.20 in 5.0 mi Calm Calm - N/A   Mist
9:38 PM 10.4 °F - 8.6 °F 92% 30.20 in 7.0 mi Calm Calm - N/A   Unknown
9:58 PM 10.4 °F - 8.6 °F 92% 30.18 in 7.0 mi Calm Calm - N/A   Unknown
10:18 PM 8.6 °F 0.1 °F 6.8 °F 92% 30.18 in 7.0 mi South 4.6 mph - N/A   Unknown
10:38 PM 8.6 °F - 8.6 °F 100% 30.18 in 7.0 mi Calm Calm - N/A   Unknown
10:58 PM 10.4 °F - 8.6 °F 92% 30.18 in 7.0 mi Calm Calm - N/A   Unknown
11:18 PM 8.6 °F - 5.0 °F 85% 30.17 in 5.0 mi Calm Calm - N/A   Mist
11:58 PM 8.6 °F 0.1 °F 5.0 °F 85% 30.16 in 7.0 mi SSW 4.6 mph - N/A   Unknown